Location: Newark
(40.4881°N, 5.6117°W)
Time: 20:05:13
(UTC+00:00)

N. Korean satellite - Pass Details

Date: 27 March 2019
Orbit: 457 x 508 km, 97.2° (Epoch: 22 April)

Event Time Altitude Azimuth Distance (km) Brightness Sun altitude
Rises 05:43:28 0° 28° (NNE) 2,544 10.8 -6.8°
Reaches altitude 10° 05:45:56 10° 46° (NE) 1,670 10.2 -6.3°
Maximum altitude 05:48:37 20° 94° (E) 1,188 9.8 -5.8°
Drops below altitude 10° 05:51:20 10° 143° (SE) 1,681 9.7 -5.3°
Sets 05:53:50 0° 161° (SSE) 2,567 10.4 -4.9°
